EZY54AH EGKK-EGJJ

Flight info

Callsign EZY54AH
Flight time 0h 34m
Altitude 24000
Route NOVMA L620 SAM N63 LELNA
Aircraft A319/M-SDE3FGHIRWY/LB1

Departure

Time 2026-04-16 08:49
Airport London Gatwick Airport (EGKK)

Arrival

Time 2026-04-16 09:23
Airport Jersey Airport (EGJJ)
Time Latitude Longitude Altitude Speed Heading
2026-04-16 08:24 51.15284 -0.18864 215 ft 0 kts 257°
2026-04-16 08:25 51.15284 -0.18859 214 ft 0 kts 258°
2026-04-16 08:38 51.15285 -0.18857 204 ft 2 kts 258°
2026-04-16 08:38 51.15290 -0.18816 215 ft 4 kts 258°
2026-04-16 08:38 51.15296 -0.18775 210 ft 4 kts 250°
2026-04-16 08:39 51.15308 -0.18746 211 ft 4 kts 187°
2026-04-16 08:39 51.15327 -0.18749 213 ft 4 kts 168°
2026-04-16 08:39 51.15333 -0.18752 206 ft 0 kts 168°
2026-04-16 08:41 51.15333 -0.18751 206 ft 1 kts 165°
2026-04-16 08:42 51.15320 -0.18745 212 ft 3 kts 165°
2026-04-16 08:42 51.15299 -0.18737 211 ft 4 kts 167°
2026-04-16 08:42 51.15271 -0.18728 208 ft 5 kts 169°
2026-04-16 08:42 51.15235 -0.18717 204 ft 6 kts 169°
2026-04-16 08:43 51.15192 -0.18703 211 ft 7 kts 169°
2026-04-16 08:43 51.15148 -0.18662 209 ft 8 kts 123°
2026-04-16 08:43 51.15151 -0.18573 205 ft 8 kts 77°
2026-04-16 08:43 51.15165 -0.18478 204 ft 9 kts 77°
2026-04-16 08:44 51.15179 -0.18376 207 ft 10 kts 79°
2026-04-16 08:44 51.15188 -0.18267 215 ft 10 kts 82°
2026-04-16 08:44 51.15203 -0.18155 209 ft 11 kts 76°
2026-04-16 08:44 51.15220 -0.18037 211 ft 11 kts 77°
2026-04-16 08:45 51.15237 -0.17915 207 ft 12 kts 78°
2026-04-16 08:45 51.15254 -0.17788 204 ft 12 kts 78°
2026-04-16 08:45 51.15272 -0.17655 204 ft 13 kts 78°
2026-04-16 08:45 51.15291 -0.17514 212 ft 13 kts 78°
2026-04-16 08:46 51.15294 -0.17371 204 ft 13 kts 124°
2026-04-16 08:46 51.15220 -0.17288 211 ft 13 kts 144°
2026-04-16 08:46 51.15184 -0.17161 204 ft 14 kts 78°
2026-04-16 08:46 51.15207 -0.17008 208 ft 14 kts 78°
2026-04-16 08:47 51.15216 -0.16937 214 ft 1 kts 78°
2026-04-16 08:47 51.15218 -0.16923 212 ft 2 kts 78°
2026-04-16 08:47 51.15222 -0.16886 207 ft 5 kts 83°
2026-04-16 08:47 51.15212 -0.16825 209 ft 7 kts 120°
2026-04-16 08:48 51.15162 -0.16778 212 ft 11 kts 166°
2026-04-16 08:48 51.15115 -0.16850 211 ft 16 kts 256°
2026-04-16 08:48 51.15059 -0.17255 204 ft 70 kts 257°
2026-04-16 08:48 51.14902 -0.18385 204 ft 136 kts 257°
2026-04-16 08:49 51.14693 -0.19951 757 ft 143 kts 256°
2026-04-16 08:49 51.14486 -0.21480 1560 ft 140 kts 255°
2026-04-16 08:49 51.14264 -0.23017 2230 ft 147 kts 256°
2026-04-16 08:49 51.14006 -0.24705 2714 ft 166 kts 256°
2026-04-16 08:50 51.13727 -0.26599 3160 ft 190 kts 256°
2026-04-16 08:50 51.13427 -0.28787 3653 ft 214 kts 256°
2026-04-16 08:50 51.13090 -0.31261 3966 ft 240 kts 257°
2026-04-16 08:50 51.12735 -0.33888 4000 ft 243 kts 257°
2026-04-16 08:51 51.12377 -0.36528 4005 ft 244 kts 257°
2026-04-16 08:51 51.12022 -0.39132 3999 ft 243 kts 257°
2026-04-16 08:51 51.11658 -0.41773 3999 ft 243 kts 256°
2026-04-16 08:51 51.11072 -0.44295 4000 ft 243 kts 243°
2026-04-16 08:52 51.10326 -0.46679 4001 ft 243 kts 243°
2026-04-16 08:52 51.09575 -0.49100 4001 ft 243 kts 243°
2026-04-16 08:52 51.08821 -0.51524 4003 ft 243 kts 243°
2026-04-16 08:52 51.08073 -0.53921 4001 ft 242 kts 244°
2026-04-16 08:53 51.07321 -0.56327 4005 ft 243 kts 243°
2026-04-16 08:53 51.06582 -0.58684 3998 ft 239 kts 244°
2026-04-16 08:53 51.05835 -0.61071 4004 ft 243 kts 244°
2026-04-16 08:53 51.05235 -0.63595 4008 ft 245 kts 257°
2026-04-16 08:54 51.04892 -0.66243 4005 ft 243 kts 257°
2026-04-16 08:54 51.04547 -0.68848 4005 ft 243 kts 257°
2026-04-16 08:54 51.04193 -0.71478 4004 ft 243 kts 257°
2026-04-16 08:54 51.03836 -0.74114 4004 ft 244 kts 257°
2026-04-16 08:55 51.03478 -0.76754 4057 ft 247 kts 257°
2026-04-16 08:55 51.03106 -0.79478 5016 ft 250 kts 257°
2026-04-16 08:55 51.02743 -0.82143 6196 ft 249 kts 257°
2026-04-16 08:55 51.02373 -0.84864 7197 ft 253 kts 257°
2026-04-16 08:56 51.01997 -0.87630 8157 ft 257 kts 257°
2026-04-16 08:56 51.01623 -0.90391 9163 ft 261 kts 257°
2026-04-16 08:56 51.01238 -0.93237 10140 ft 265 kts 257°
2026-04-16 08:56 51.00833 -0.96203 10671 ft 284 kts 257°
2026-04-16 08:57 51.00393 -0.99396 11009 ft 307 kts 257°
2026-04-16 08:57 50.99932 -1.02760 11679 ft 315 kts 257°
2026-04-16 08:57 50.99467 -1.06147 12502 ft 319 kts 258°
2026-04-16 08:57 50.98988 -1.09621 13336 ft 323 kts 258°
2026-04-16 08:58 50.98504 -1.13130 14140 ft 326 kts 258°
2026-04-16 08:58 50.98015 -1.16661 14861 ft 329 kts 258°
2026-04-16 08:58 50.97518 -1.20234 15615 ft 332 kts 258°
2026-04-16 08:58 50.97025 -1.23781 16357 ft 334 kts 258°
2026-04-16 08:59 50.96520 -1.27399 17095 ft 336 kts 257°
2026-04-16 08:59 50.95740 -1.30915 17817 ft 340 kts 245°
2026-04-16 08:59 50.94441 -1.34040 18516 ft 346 kts 232°
2026-04-16 08:59 50.92643 -1.36647 19120 ft 354 kts 219°
2026-04-16 09:00 50.90488 -1.38565 19733 ft 361 kts 211°
2026-04-16 09:00 50.88239 -1.40353 20351 ft 363 kts 211°
2026-04-16 09:00 50.85958 -1.42165 20957 ft 367 kts 211°
2026-04-16 09:00 50.83657 -1.43995 21536 ft 370 kts 211°
2026-04-16 09:01 50.79018 -1.47683 22703 ft 377 kts 211°
2026-04-16 09:01 50.76686 -1.49532 23268 ft 380 kts 211°
2026-04-16 09:01 50.74305 -1.51417 23800 ft 383 kts 212°
2026-04-16 09:02 50.71909 -1.53313 24080 ft 385 kts 212°
2026-04-16 09:02 50.69548 -1.55177 24146 ft 383 kts 212°
2026-04-16 09:02 50.67165 -1.57059 24166 ft 381 kts 212°
2026-04-16 09:02 50.64788 -1.58938 24165 ft 381 kts 212°
2026-04-16 09:03 50.62408 -1.60816 24150 ft 381 kts 212°
2026-04-16 09:03 50.60028 -1.62691 24164 ft 382 kts 212°
2026-04-16 09:03 50.57673 -1.64545 24171 ft 382 kts 212°
2026-04-16 09:03 50.55280 -1.66429 24172 ft 382 kts 212°
2026-04-16 09:04 50.52897 -1.68300 24169 ft 382 kts 212°
2026-04-16 09:04 50.50535 -1.70150 24170 ft 382 kts 212°
2026-04-16 09:04 50.48151 -1.72015 24176 ft 382 kts 212°
2026-04-16 09:04 50.45767 -1.73881 24174 ft 382 kts 212°
2026-04-16 09:05 50.43407 -1.75732 24176 ft 382 kts 212°
2026-04-16 09:05 50.41026 -1.77597 24177 ft 382 kts 212°
2026-04-16 09:05 50.38637 -1.79463 24165 ft 382 kts 212°
2026-04-16 09:05 50.36245 -1.81328 24164 ft 383 kts 212°
2026-04-16 09:06 50.33889 -1.83164 24168 ft 383 kts 212°
2026-04-16 09:06 50.31492 -1.85028 24180 ft 383 kts 212°
2026-04-16 09:06 50.29102 -1.86884 24158 ft 383 kts 212°
2026-04-16 09:06 50.26718 -1.88732 23922 ft 378 kts 212°
2026-04-16 09:07 50.24401 -1.90526 23676 ft 376 kts 212°
2026-04-16 09:07 50.22054 -1.92343 23417 ft 374 kts 212°
2026-04-16 09:07 50.19710 -1.94155 23140 ft 373 kts 211°
2026-04-16 09:07 50.17392 -1.95942 22841 ft 371 kts 211°
2026-04-16 09:08 50.15104 -1.97703 22580 ft 370 kts 211°
2026-04-16 09:08 50.12807 -1.99467 22289 ft 364 kts 211°
2026-04-16 09:08 50.10541 -2.01209 21866 ft 359 kts 211°
2026-04-16 09:08 50.08332 -2.02906 21566 ft 352 kts 211°
2026-04-16 09:09 50.06172 -2.04559 21482 ft 337 kts 211°
2026-04-16 09:09 50.04066 -2.06172 21396 ft 336 kts 211°
2026-04-16 09:09 50.01993 -2.07767 21323 ft 337 kts 211°
2026-04-16 09:09 49.99796 -2.09108 21253 ft 343 kts 201°
2026-04-16 09:10 49.97415 -2.09750 21180 ft 349 kts 189°
2026-04-16 09:10 49.94963 -2.09616 21078 ft 357 kts 178°
2026-04-16 09:10 49.92537 -2.08886 20995 ft 359 kts 174°
2026-04-16 09:10 49.90081 -2.08128 20699 ft 361 kts 175°
2026-04-16 09:11 49.87557 -2.07437 19740 ft 372 kts 176°
2026-04-16 09:11 49.84942 -2.06789 18786 ft 384 kts 176°
2026-04-16 09:11 49.82289 -2.06159 17829 ft 394 kts 176°
2026-04-16 09:11 49.79589 -2.05512 17422 ft 388 kts 175°
2026-04-16 09:12 49.77833 -2.05084 17108 ft 384 kts 175°
2026-04-16 09:12 49.75208 -2.04436 16534 ft 378 kts 175°
2026-04-16 09:12 49.72627 -2.03793 15641 ft 373 kts 175°
2026-04-16 09:12 49.70069 -2.03159 14774 ft 369 kts 175°
2026-04-16 09:13 49.67566 -2.02539 13949 ft 364 kts 175°
2026-04-16 09:13 49.65080 -2.01921 13034 ft 359 kts 175°
2026-04-16 09:13 49.62625 -2.01309 12152 ft 353 kts 175°
2026-04-16 09:13 49.60257 -2.00714 11848 ft 332 kts 175°
2026-04-16 09:14 49.58084 -2.00163 11719 ft 309 kts 175°
2026-04-16 09:14 49.56012 -1.99642 11347 ft 296 kts 175°
2026-04-16 09:14 49.53985 -1.99144 10808 ft 291 kts 175°
2026-04-16 09:14 49.51993 -1.98662 10242 ft 288 kts 175°
2026-04-16 09:15 49.50041 -1.98186 9620 ft 285 kts 175°
2026-04-16 09:15 49.48091 -1.97709 8980 ft 282 kts 175°
2026-04-16 09:15 49.46149 -1.97235 8339 ft 279 kts 175°
2026-04-16 09:15 49.44233 -1.96768 7716 ft 276 kts 175°
2026-04-16 09:16 49.42360 -1.96312 7108 ft 274 kts 175°
2026-04-16 09:16 49.40480 -1.95850 6511 ft 271 kts 174°
2026-04-16 09:16 49.38632 -1.95396 6061 ft 269 kts 174°
2026-04-16 09:16 49.36812 -1.94948 5969 ft 255 kts 175°
2026-04-16 09:17 49.35106 -1.94529 5716 ft 247 kts 175°
2026-04-16 09:17 49.33443 -1.94119 5560 ft 237 kts 175°
2026-04-16 09:17 49.31849 -1.93724 5444 ft 227 kts 175°
2026-04-16 09:17 49.30316 -1.93364 5213 ft 222 kts 177°
2026-04-16 09:18 49.28772 -1.93059 4867 ft 223 kts 177°
2026-04-16 09:18 49.27246 -1.92774 4547 ft 223 kts 178°
2026-04-16 09:18 49.25703 -1.92487 4225 ft 222 kts 178°
2026-04-16 09:18 49.24179 -1.92428 3898 ft 216 kts 198°
2026-04-16 09:19 49.23016 -1.93718 3604 ft 206 kts 241°
2026-04-16 09:19 49.22619 -1.95764 3335 ft 204 kts 259°
2026-04-16 09:19 49.22438 -1.97919 3032 ft 204 kts 262°
2026-04-16 09:19 49.22298 -2.00052 2748 ft 195 kts 263°
2026-04-16 09:20 49.22165 -2.02071 2471 ft 186 kts 263°
2026-04-16 09:20 49.22032 -2.03980 2240 ft 175 kts 262°
2026-04-16 09:20 49.21900 -2.05758 1977 ft 164 kts 262°
2026-04-16 09:20 49.21776 -2.07401 1769 ft 145 kts 261°
2026-04-16 09:21 49.21665 -2.08840 1569 ft 129 kts 259°
2026-04-16 09:21 49.21559 -2.10176 1402 ft 124 kts 260°
2026-04-16 09:21 49.21454 -2.11480 1240 ft 122 kts 260°
2026-04-16 09:21 49.21360 -2.12764 1076 ft 121 kts 261°
2026-04-16 09:22 49.21264 -2.14039 920 ft 123 kts 259°
2026-04-16 09:22 49.21169 -2.15315 754 ft 119 kts 258°
2026-04-16 09:22 49.21050 -2.16590 553 ft 124 kts 257°
2026-04-16 09:22 49.20939 -2.17874 418 ft 122 kts 258°
2026-04-16 09:23 49.20833 -2.19127 294 ft 105 kts 262°
2026-04-16 09:23 49.20777 -2.19793 297 ft 33 kts 263°
2026-04-16 09:23 49.20754 -2.20058 289 ft 24 kts 254°
2026-04-16 09:23 49.20635 -2.20090 290 ft 17 kts 174°
2026-04-16 09:24 49.20536 -2.20057 292 ft 12 kts 130°
2026-04-16 09:24 49.20527 -2.19942 290 ft 12 kts 46°
2026-04-16 09:24 49.20598 -2.19902 292 ft 11 kts 57°
2026-04-16 09:24 49.20611 -2.19781 290 ft 12 kts 85°
2026-04-16 09:25 49.20619 -2.19705 290 ft 5 kts 75°
2026-04-16 09:25 49.20608 -2.19667 291 ft 4 kts 148°
2026-04-16 09:25 49.20576 -2.19646 291 ft 6 kts 158°
2026-04-16 09:25 49.20566 -2.19639 291 ft 1 kts 158°
2026-04-16 09:26 49.20561 -2.19636 291 ft 0 kts 159°